User: anonymous   Login
Location: *
(51.0333°S, 178.4667°E)
Time: 21:24:27
(UTC+00:00)
Language:

STARLINK-63 - Orbit

View from above orbital plane
View from above orbital plane
View from above satellite
View from above satellite

Ground track
Ground track

The orbit data is extracted from the following two-line orbital elements,

1 44265U 19029AG  20023.58334491 -.00027648 +00000-0 -15745-2 0  9999
2 44265 052.9997 151.3864 0001553 070.1301 010.8958 15.12142981001790
Epoch (UTC): 23 January 2020 14:00:01
Eccentricity: 0.0001553
inclination: 52.9997°
perigee height: 528 km
apogee height: 531 km
right ascension of ascending node: 151.3864°
argument of perigee: 70.1301°
revolutions per day: 15.12142981
mean anomaly at epoch: 10.8958°
orbit number at epoch: 179

The dashed part of the orbit path shows where the satellite is in the earth's shadow,  

DLR